Home   Weather   Chico   Past weeks
Flag for USA

Past Weather in Chico, California, USA — Yesterday and Last 2 Weeks

Now
55 °F

Low clouds.


Feels Like: 51 °F
Forecast: 58 / 49 °F
Wind: 17 mph from Southeast

Location: Chico Municipal

Current Time: Dec 8, 2019 at 2:34:50 am

Latest Report: Dec 8, 2019 at 1:35 am


Visibility: 10 mi

Pressure: 29.92 "Hg

Humidity: 94%

Dew Point: 54 °F

Location of ChicoLocation

Past Weather in Chico — Graph

°F

Chico Temperature Yesterday

Maximum temperature yesterday: 61 °F (at 12:50 pm)
Minimum temperature yesterday: 54 °F (at 12:15 am)
Average temperature yesterday: 56 °F

High & Low Weather Summary for the Past Weeks

 TemperatureHumidityPressure
High70 °F (Nov 23, 2:47 pm)100% (Nov 28, 5:35 am)30.27 "Hg (Nov 28, 5:35 am)
Low32 °F (Nov 26, 5:15 am)17% (Nov 25, 2:47 pm)29.39 "Hg (Nov 26, 11:55 pm)
Average47 °F79%29.95 "Hg
* Reported Nov 23 1:35 am — Dec 8 1:15 am, Chico. Weather by CustomWeather, © 2019

Note: Actual official high and low records may vary slightly from our data, if they occured in-between our weather recording intervals... More about our weather records

Chico Weather History for the Previous 24 Hours

Scroll right to see more
 ConditionsComfort  
Time TempWeatherWind HumidityBarometerVisibility
1:15 am
Sun, Dec 8
55 °FLow clouds.14 mph94%29.92 "Hg10 mi
12:35 am55 °FLow clouds.16 mph94%29.92 "Hg10 mi
12:15 am55 °FLow clouds.16 mph94%29.91 "Hg10 mi
11:55 pm
Sat, Dec 7
55 °FLow clouds.12 mph94%29.91 "Hg10 mi
11:35 pm55 °FLow clouds.15 mph94%29.91 "Hg10 mi
11:15 pm55 °FLow clouds.17 mph94%29.91 "Hg10 mi
10:55 pm55 °FLow clouds.21 mph94%29.90 "Hg10 mi
10:35 pm55 °FLow clouds.22 mph94%29.89 "Hg10 mi
10:15 pm55 °FOvercast.18 mph94%29.89 "Hg10 mi
9:55 pm55 °FMostly cloudy.21 mph94%29.89 "Hg9 mi
9:35 pm55 °FPartly cloudy.15 mph88%29.88 "Hg10 mi
9:15 pm55 °FPartly cloudy.12 mph88%29.89 "Hg9 mi
8:35 pm55 °FOvercast.18 mph82%29.87 "Hg10 mi
8:15 pm55 °FMostly cloudy.18 mph88%29.87 "Hg10 mi
6:50 pm55 °FPassing clouds.21 mph94%29.85 "Hg10 mi
5:47 pm57 °FPassing clouds.17 mph88%29.83 "Hg10 mi
4:50 pm57 °FPassing clouds.22 mph94%29.81 "Hg10 mi
3:47 pm57 °FLight rain. Mostly cloudy.22 mph94%29.83 "Hg8 mi
2:47 pm57 °FBroken clouds.20 mph88%29.81 "Hg10 mi
1:50 pm55 °FFog.32 mph100%29.82 "Hg1 mi
1:23 pm57 °FFog.25 mph88%29.82 "Hg1 mi
12:50 pm61 °FLight rain. Cloudy.22 mph72%29.82 "Hg8 mi
11:47 am57 °FLight rain. Broken clouds.26 mph88%29.85 "Hg5 mi
10:47 am59 °FMostly cloudy.30 mph82%29.87 "Hg8 mi
9:55 am59 °FMostly cloudy.25 mph82%29.90 "Hg8 mi
8:47 am57 °FMostly cloudy.28 mph88%29.91 "Hg10 mi
7:50 am57 °FMostly cloudy.21 mph88%29.90 "Hg10 mi
6:47 am55 °FOvercast.23 mph94%29.90 "Hg7 mi
6:15 am55 °FLow clouds.22 mph94%29.90 "Hg10 mi
5:55 am55 °FLow clouds.22 mph94%29.91 "Hg10 mi
5:35 am55 °FLow clouds.22 mph94%29.91 "Hg10 mi
5:15 am55 °FLow clouds.20 mph94%29.91 "Hg10 mi
4:55 am55 °FLow clouds.20 mph94%29.91 "Hg10 mi
4:35 am55 °FLow clouds.20 mph94%29.92 "Hg10 mi
4:15 am55 °FLow clouds.20 mph94%29.92 "Hg10 mi
3:55 am55 °FLow clouds.21 mph94%29.92 "Hg10 mi
3:35 am55 °FLow clouds.23 mph94%29.92 "Hg10 mi
3:15 am55 °FLow clouds.22 mph94%29.93 "Hg10 mi
2:55 am55 °FOvercast.24 mph94%29.93 "Hg10 mi
2:35 am55 °FMostly cloudy.23 mph94%29.94 "Hg3 mi
2:15 am55 °FMostly cloudy.24 mph94%29.94 "Hg5 mi
Weather by CustomWeather, © 2019

See weather overview

Advertising